Location: Emporia
(38.4040°N, 96.1810°W)
Time: 03:49:30
(UTC-05:00)

Amateur Radio Satellites - All Passes

Search period start: 25 September 2016 03:19
Search period end: 26 September 2016 03:19
Location: Emporia, 38.4040°N, 96.1810°W

Satellite Date Start Highest point End Downlink Frequencies (MHz)
Time Altitude Azimuth
SWISSCUBE 25 Sep 03:19:35 03:24:17 64° 258° (WSW) 03:29:02 437.505
BEESAT 25 Sep 03:33:04 03:37:41 51° 260° (W) 03:42:20 436.000
SRMSAT 25 Sep 03:39:19 03:40:56 11° 186° (S) 03:42:32 437.500
RS-15 25 Sep 03:45:07 03:54:44 25° 26° (NNE) 04:04:17 29.354- 29.394
Oscar 19 25 Sep 03:50:21 03:54:49 30° 292° (WNW) 03:59:16 437.125/150
STARS 25 Sep 03:50:46 03:52:15 12° 63° (ENE) 03:53:43 437.465
MOZHAYETS 4 25 Sep 03:51:52 03:56:04 38° 72° (ENE) 04:00:19
Cosmos 2491 25 Sep 03:52:25 04:01:06 63° 268° (W) 04:09:43 435.465 / 435.565
ISS 25 Sep 03:59:28 04:02:17 25° 29° (NNE) 04:05:05 145.825
Cosmos 2504 25 Sep 04:00:28 04:06:05 24° 84° (E) 04:11:31 435.465 / 435.565
BEESAT 3 25 Sep 04:09:52 04:10:39 10° 318° (NW) 04:11:25 437.485
AO-7 25 Sep 04:13:27 04:20:39 32° 97° (E) 04:27:48 29.400- 29.500
Gurwin Techsat 1B 25 Sep 04:21:27 04:26:13 34° 291° (WNW) 04:30:57 435.225
PCSat 25 Sep 04:34:11 04:37:25 16° 104° (ESE) 04:40:41 145.827
ITAMSAT 1 25 Sep 04:35:33 04:40:48 88° 284° (WNW) 04:46:01 435.822/435.867
KKS-1 25 Sep 04:40:51 04:45:20 89° 76° (ENE) 04:49:48 437.445
YUBILEINY 25 Sep 04:50:47 04:59:26 60° 281° (W) 05:08:06 435.215
CUBESAT XI-V 25 Sep 05:02:56 05:06:56 29° 69° (ENE) 05:10:57 437.345
AIST 2 25 Sep 05:11:07 05:15:11 78° 118° (ESE) 05:19:19 435.215
AIST 1 25 Sep 05:19:34 05:21:57 14° 86° (E) 05:24:20
STARS 25 Sep 05:23:41 05:28:02 64° 258° (WSW) 05:32:24 437.465
MOZHAYETS 4 25 Sep 05:30:10 05:33:21 19° 267° (W) 05:36:34
ISS 25 Sep 05:35:46 05:38:50 36° 225° (SW) 05:41:53 145.825
CUSAT 1 25 Sep 05:48:36 05:53:51 19° 62° (ENE) 05:58:41 437.405
Cosmos 2504 25 Sep 05:51:33 05:58:54 56° 281° (W) 06:06:00 435.465 / 435.565
HORYU 2 25 Sep 05:54:15 05:58:00 26° 96° (E) 06:01:44 437.375
RS-15 25 Sep 05:57:53 06:10:15 67° 54° (NE) 06:22:17 29.354- 29.394
AO-7 25 Sep 06:05:40 06:13:39 54° 294° (WNW) 06:21:38 29.400- 29.500
PCSat 25 Sep 06:14:53 06:20:14 62° 300° (WNW) 06:25:38 145.827
ITAMSAT 1 25 Sep 06:18:11 06:19:27 11° 301° (WNW) 06:20:42 435.822/435.867
BRITE-PL 25 Sep 06:19:18 06:23:28 28° 94° (E) 06:27:21 437.365/2234.400
GOMX 1 25 Sep 06:26:59 06:28:36 12° 89° (E) 06:30:13 467.674
STRAND 1 25 Sep 06:27:45 06:29:39 12° 61° (ENE) 06:31:33 437.568
AO-85 25 Sep 06:37:27 06:40:36 20° 47° (NE) 06:43:37 145.980
CUBESAT XI-V 25 Sep 06:40:18 06:44:14 27° 265° (W) 06:48:13 437.345
DANDE 25 Sep 06:46:41 06:53:21 26° 67° (ENE) 06:59:50 436.750
LilacSat-2 25 Sep 06:49:43 06:52:26 18° 94° (E) 06:55:08 437.200
AIST 2 25 Sep 06:52:34 06:54:12 12° 317° (NW) 06:55:50 435.215
AIST 1 25 Sep 06:54:57 06:59:07 42° 281° (W) 07:03:19
DOVE 4 25 Sep 07:04:28 07:06:01 12° 91° (E) 07:07:34 437.250
CUSAT 1 25 Sep 07:29:04 07:37:00 85° 262° (W) 07:43:40 437.405
HORYU 2 25 Sep 07:30:46 07:34:27 26° 291° (WNW) 07:38:10 437.375
NOAA 15 25 Sep 07:45:21 07:50:41 88° 280° (W) 07:55:58 137.62
Cubesat XI-IV 25 Sep 07:50:02 07:55:25 83° 103° (ESE) 08:00:47 437.490
CUTE-I 25 Sep 07:51:14 07:56:37 86° 105° (ESE) 08:01:59 437.470
BRITE-PL 25 Sep 07:57:46 08:01:51 27° 293° (WNW) 08:05:41 437.365/2234.400
AO-7 25 Sep 08:02:36 08:04:33 11° 315° (NW) 08:06:31 29.400- 29.500
GOMX 1 25 Sep 08:02:46 08:07:08 52° 286° (WNW) 08:11:15 467.674
STRAND 1 25 Sep 08:03:01 08:08:06 81° 257° (WSW) 08:13:14 437.568
PCSat 25 Sep 08:03:38 08:04:45 11° 320° (NW) 08:05:52 145.827
NOAA 18 25 Sep 08:05:44 08:11:13 90° 115° (ESE) 08:16:42 137.9125
RS-15 25 Sep 08:11:20 08:21:57 36° 255° (WSW) 08:32:19 29.354- 29.394
CUTE 1.7 + AOD 2 25 Sep 08:12:55 08:14:59 13° 91° (E) 08:17:02 437.475
CANX-2 25 Sep 08:13:03 08:15:40 16° 92° (E) 08:18:15 2200.000
AO-85 25 Sep 08:17:26 08:21:07 33° 246° (WSW) 08:24:37 145.980
SEEDS 25 Sep 08:21:11 08:22:12 11° 90° (E) 08:23:13 437.485
LilacSat-2 25 Sep 08:23:27 08:26:43 27° 289° (WNW) 08:29:58 437.200
O/OREOS (USA 219) 25 Sep 08:26:15 08:30:44 68° 108° (ESE) 08:35:17 437.305
DANDE 25 Sep 08:28:28 08:36:49 73° 265° (W) 08:44:43 436.750
HO-68 25 Sep 08:31:28 08:37:41 31° 96° (E) 08:43:52 435.675
CINEMA 3 25 Sep 08:37:18 08:41:07 34° 98° (E) 08:44:58 145.822/145.860
DOVE 4 25 Sep 08:39:59 08:44:04 47° 286° (WNW) 08:48:02 437.250
AAUSAT CUBESAT 2 25 Sep 08:51:59 08:53:56 13° 91° (E) 08:55:53 437.432
Cosmos 2499 25 Sep 09:12:04 09:18:32 37° 88° (E) 09:24:50 435.465 / 435.565
GONETS M04 25 Sep 09:12:33 09:20:55 50° 89° (E) 09:29:19
CUSAT 1 25 Sep 09:13:48 09:17:33 14° 282° (WNW) 09:21:03 437.405
PRISM 25 Sep 09:26:48 09:30:57 77° 77° (ENE) 09:35:08 437.425
NOAA 15 25 Sep 09:28:14 09:29:36 11° 301° (WNW) 09:30:59 137.62
ZACube-1 25 Sep 09:31:16 09:33:48 15° 93° (E) 09:36:22 437.345
COMPASS 1 25 Sep 09:31:20 09:35:27 50° 99° (E) 09:39:33 437.405
Cubesat XI-IV 25 Sep 09:32:33 09:34:44 13° 300° (WNW) 09:36:56 437.490
CUTE-I 25 Sep 09:33:54 09:35:53 12° 300° (WNW) 09:37:52 437.470
Oscar 11 25 Sep 09:35:09 09:37:53 16° 93° (E) 09:40:36 145.826/435.025
ANTELSAT 25 Sep 09:36:29 09:37:26 11° 63° (ENE) 09:38:23 437.575/2403.000
CUTE 1.7 + AOD 2 25 Sep 09:46:55 09:51:04 48° 286° (WNW) 09:55:11 437.475
CANX-2 25 Sep 09:47:37 09:51:40 40° 287° (WNW) 09:55:41 2200.000
NOAA 18 25 Sep 09:49:06 09:51:04 12° 301° (WNW) 09:53:02 137.9125
SEEDS 25 Sep 09:54:02 09:58:14 57° 285° (WNW) 10:02:24 437.485
TIGRISAT 25 Sep 09:55:54 09:58:40 17° 67° (ENE) 10:01:25 435.000
CUBEBUG 2 25 Sep 10:05:10 10:09:26 86° 288° (WNW) 10:13:49 437.445
O/OREOS (USA 219) 25 Sep 10:08:39 10:10:39 13° 306° (NW) 10:12:39 437.305
DANDE 25 Sep 10:14:30 10:18:10 14° 282° (WNW) 10:21:48 436.750
CINEMA 3 25 Sep 10:15:14 10:18:00 17° 292° (WNW) 10:20:48 145.822/145.860
HO-68 25 Sep 10:18:46 10:25:32 47° 293° (WNW) 10:32:16 435.675
AAUSAT CUBESAT 2 25 Sep 10:25:37 10:29:39 46° 286° (WNW) 10:33:39 437.432
FUNcube-1 25 Sep 10:25:41 10:29:57 60° 101° (E) 10:34:18 145.935
UWE-3 25 Sep 10:29:45 10:34:01 69° 284° (WNW) 10:38:23 435.000/436.395/437.385
UNISAT 6 25 Sep 10:33:56 10:38:03 48° 73° (ENE) 10:42:11 437.425
DELFI C3 25 Sep 10:36:39 10:40:13 30° 97° (E) 10:43:46 145.870
BEESAT 3 25 Sep 10:47:14 10:50:44 29° 52° (NE) 10:54:14 437.485
JAS-2 25 Sep 11:02:35 11:06:41 18° 57° (ENE) 11:11:03 435.910
POPSAT HIP 1 25 Sep 11:04:13 11:06:11 13° 65° (ENE) 11:08:07 437.405
Cosmos 2499 25 Sep 11:05:05 11:11:34 35° 285° (WNW) 11:17:55 435.465 / 435.565
ZACube-1 25 Sep 11:06:11 11:10:14 42° 287° (WNW) 11:14:23 437.345
COMPASS 1 25 Sep 11:08:32 11:10:33 13° 295° (WNW) 11:12:34 437.405
ANTELSAT 25 Sep 11:09:20 11:13:36 64° 259° (WSW) 11:17:50 437.575/2403.000
Oscar 11 25 Sep 11:10:05 11:14:10 40° 288° (WNW) 11:18:14 145.826/435.025
GONETS M04 25 Sep 11:10:06 11:17:55 35° 288° (WNW) 11:25:49
NANOSAT C BR1 25 Sep 11:21:27 11:24:28 20° 68° (ENE) 11:27:29 145.865
TIGRISAT 25 Sep 11:31:05 11:35:04 37° 262° (W) 11:39:02 435.000
BEESAT 2 25 Sep 11:36:18 11:40:12 48° 56° (NE) 11:44:05 435.950
QB50P2 25 Sep 11:41:01 11:44:53 36° 72° (ENE) 11:48:45 145.880/145.840
POLYITAN 1 25 Sep 11:43:16 11:47:08 36° 72° (ENE) 11:51:00 437.675
ESTCUBE 1 25 Sep 11:46:33 11:49:00 14° 92° (E) 11:51:27 437.505/2401.250
HUMSAT D 25 Sep 11:52:31 11:56:44 68° 284° (WNW) 12:00:59 437.325/437.525
FUNcube-1 25 Sep 12:04:07 12:05:41 12° 295° (WNW) 12:07:17 145.935
CUBEBUG 1 25 Sep 12:10:15 12:12:52 16° 93° (E) 12:15:29 437.445
DELFI C3 25 Sep 12:11:59 12:14:49 19° 292° (WNW) 12:17:39 145.870
UNISAT 6 25 Sep 12:13:07 12:15:02 13° 268° (W) 12:16:56 437.425
QB50P1 25 Sep 12:24:01 12:28:13 72° 258° (WSW) 12:32:26 145.935-145.965
BEESAT 3 25 Sep 12:25:09 12:28:14 22° 248° (WSW) 12:31:19 437.485
DUCHIFAT 1 25 Sep 12:25:11 12:29:22 81° 256° (WSW) 12:33:34 145.980
POPSAT HIP 1 25 Sep 12:37:24 12:41:30 50° 260° (W) 12:45:36 437.405
PHONESAT 2.4 25 Sep 12:38:42 12:41:30 41° 156° (SSE) 12:44:19 2401.200-2431.200
BUGSAT 1 25 Sep 12:39:45 12:43:48 57° 75° (ENE) 12:47:50 437.445
JAS-2 25 Sep 12:44:26 12:50:38 82° 257° (WSW) 12:57:46 435.910
AISAT 25 Sep 12:49:34 12:53:36 35° 98° (E) 12:57:37 437.250
NANOSAT C BR1 25 Sep 12:56:12 12:59:57 32° 262° (W) 13:03:44 145.865
50 SAT 25 Sep 12:57:51 13:01:20 39° 99° (E) 13:04:46 437.505
AUBIESAT-1 25 Sep 13:02:37 13:04:52 17° 100° (E) 13:07:07 437.475
SPROUT 25 Sep 13:04:01 13:07:36 26° 96° (E) 13:11:10 437.525
YUBILEINY 25 Sep 13:10:23 13:12:38 11° 58° (ENE) 13:14:54 435.215
UKube-1 25 Sep 13:12:14 13:15:57 28° 97° (E) 13:19:38 .
BEESAT 2 25 Sep 13:15:39 13:17:35 13° 251° (WSW) 13:19:29 435.950
QB50P2 25 Sep 13:18:04 13:20:47 17° 267° (W) 13:23:31 145.880/145.840
POLYITAN 1 25 Sep 13:20:22 13:23:02 16° 267° (W) 13:25:43 437.675
ESTCUBE 1 25 Sep 13:21:40 13:26:04 49° 287° (WNW) 13:30:25 437.505/2401.250
PCSat 25 Sep 13:22:59 13:25:16 12° 42° (NE) 13:27:32 145.827
Oscar 19 25 Sep 13:26:17 13:31:02 38° 70° (ENE) 13:35:49 437.125/150
VELOX 1 25 Sep 13:33:13 13:37:38 76° 283° (WNW) 13:42:00 145.980
AIST 2 25 Sep 13:33:57 13:37:45 32° 53° (NE) 13:41:31 435.215
DX 1 25 Sep 13:34:50 13:39:10 69° 102° (ESE) 13:43:28 434.975-435.025
M-CUBED/EXP-1 PRIME 25 Sep 13:36:37 13:39:53 70° 107° (ESE) 13:43:07 437.505
CUBEBUG 1 25 Sep 13:45:15 13:49:20 41° 288° (WNW) 13:53:22 437.445
Gurwin Techsat 1B 25 Sep 14:01:15 14:06:07 38° 70° (ENE) 14:11:01 435.225
PHONESAT 2.4 25 Sep 14:14:40 14:17:36 61° 352° (N) 14:20:33 2401.200-2431.200
ITAMSAT 1 25 Sep 14:15:34 14:18:19 15° 62° (ENE) 14:21:05 435.822/435.867
AISAT 25 Sep 14:26:40 14:29:49 19° 293° (WNW) 14:32:56 437.250
50 SAT 25 Sep 14:32:55 14:34:27 12° 294° (WNW) 14:36:00 437.505
TISAT 1 25 Sep 14:34:16 14:38:21 53° 100° (E) 14:42:25 437.305
JAS-2 25 Sep 14:35:12 14:36:56 11° 276° (W) 14:38:44 435.910
AUBIESAT-1 25 Sep 14:36:45 14:39:19 21° 295° (WNW) 14:41:52 437.475
SPROUT 25 Sep 14:40:00 14:43:25 24° 291° (WNW) 14:46:50 437.525
UKube-1 25 Sep 14:48:25 14:51:50 23° 292° (WNW) 14:55:15 .
Cosmos 2491 25 Sep 14:56:02 15:03:28 32° 84° (E) 15:10:57 435.465 / 435.565
YUBILEINY 25 Sep 15:02:41 15:11:21 65° 80° (E) 15:19:56 435.215
PCSat 25 Sep 15:04:09 15:09:36 75° 61° (ENE) 15:15:00 145.827
Oscar 19 25 Sep 15:06:16 15:10:25 24° 265° (W) 15:14:36 437.125/150
ITUPSAT 1 25 Sep 15:07:12 15:10:57 22° 95° (E) 15:14:40 437.325
AO-7 25 Sep 15:10:47 15:18:19 40° 62° (ENE) 15:25:51 29.400- 29.500
SO-50 25 Sep 15:11:35 15:13:10 12° 107° (ESE) 15:14:46 436.795
AIST 2 25 Sep 15:12:45 15:16:03 22° 248° (WSW) 15:19:20 435.215
DX 1 25 Sep 15:13:49 15:14:45 11° 298° (WNW) 15:15:41 434.975-435.025
SWISSCUBE 25 Sep 15:21:20 15:25:45 35° 98° (E) 15:30:08 437.505
BEESAT 25 Sep 15:34:31 15:39:06 44° 99° (E) 15:43:39 436.000
Gurwin Techsat 1B 25 Sep 15:41:53 15:46:09 24° 265° (W) 15:50:26 435.225
Cosmos 2504 25 Sep 15:44:36 15:51:39 45° 77° (ENE) 15:59:06 435.465 / 435.565
PHONESAT 2.4 25 Sep 15:50:58 15:53:55 64° 10° (N) 15:56:52 2401.200-2431.200
ITAMSAT 1 25 Sep 15:52:03 15:57:11 68° 258° (WSW) 16:02:22 435.822/435.867
TISAT 1 25 Sep 16:11:50 16:13:31 12° 296° (WNW) 16:15:12 437.305
KKS-1 25 Sep 16:34:14 16:37:20 19° 94° (E) 16:40:26 437.445
ITUPSAT 1 25 Sep 16:44:27 16:48:49 36° 290° (WNW) 16:53:11 437.325
SO-50 25 Sep 16:48:11 16:53:01 76° 302° (WNW) 16:57:50 436.795
PCSat 25 Sep 16:49:53 16:52:17 13° 257° (WSW) 16:54:40 145.827
HORYU 2 25 Sep 16:51:15 16:54:32 21° 67° (ENE) 16:57:51 437.375
Cosmos 2491 25 Sep 16:51:24 16:59:52 52° 283° (WNW) 17:08:26 435.465 / 435.565
SWISSCUBE 25 Sep 16:59:34 17:03:18 23° 293° (WNW) 17:07:02 437.505
YUBILEINY 25 Sep 17:00:47 17:07:20 25° 278° (W) 17:13:54 435.215
O/OREOS (USA 219) 25 Sep 17:01:08 17:02:19 11° 53° (NE) 17:03:30 437.305
AO-7 25 Sep 17:03:05 17:10:56 45° 259° (W) 17:18:49 29.400- 29.500
AIST 1 25 Sep 17:03:26 17:07:27 37° 78° (ENE) 17:11:23
BEESAT 25 Sep 17:13:12 17:16:31 19° 295° (WNW) 17:19:51 436.000
STARS 25 Sep 17:14:59 17:18:33 24° 96° (E) 17:22:07 437.465
MOZHAYETS 4 25 Sep 17:24:51 17:29:29 72° 285° (WNW) 17:34:06
NOAA 15 25 Sep 17:26:48 17:29:57 16° 62° (ENE) 17:33:05 137.62
BRITE-PL 25 Sep 17:27:09 17:32:11 33° 69° (ENE) 17:37:10 437.365/2234.400
PHONESAT 2.4 25 Sep 17:27:12 17:30:00 38° 204° (SSW) 17:32:47 2401.200-2431.200
GOMX 1 25 Sep 17:32:25 17:35:39 16° 65° (ENE) 17:38:49 467.674
Cubesat XI-IV 25 Sep 17:33:38 17:36:28 15° 61° (ENE) 17:39:18 437.490
CUTE-I 25 Sep 17:34:33 17:37:29 15° 62° (ENE) 17:40:26 437.470
Cosmos 2504 25 Sep 17:38:25 17:44:44 31° 273° (W) 17:51:23 435.465 / 435.565
NOAA 18 25 Sep 17:52:12 17:55:58 19° 63° (ENE) 17:59:44 137.9125
DOVE 4 25 Sep 18:07:55 18:10:36 15° 65° (ENE) 18:13:11 437.250
KKS-1 25 Sep 18:09:57 18:13:59 36° 289° (WNW) 18:18:02 437.445
HORYU 2 25 Sep 18:26:55 18:30:53 33° 262° (W) 18:34:52 437.375
SO-50 25 Sep 18:32:28 18:34:17 12° 320° (NW) 18:36:05 436.795
CUBESAT XI-V 25 Sep 18:37:21 18:42:05 85° 105° (ESE) 18:46:45 437.345
O/OREOS (USA 219) 25 Sep 18:37:43 18:42:20 81° 250° (WSW) 18:46:55 437.305
AIST 1 25 Sep 18:42:08 18:44:39 15° 274° (W) 18:47:10
CUSAT 1 25 Sep 18:49:12 18:52:35 15° 78° (ENE) 18:56:19 437.405
STARS 25 Sep 18:51:10 18:54:50 27° 291° (WNW) 18:58:30 437.465
HO-68 25 Sep 18:59:52 19:04:55 21° 58° (ENE) 19:09:59 435.675
LilacSat-2 25 Sep 19:03:08 19:06:53 71° 259° (W) 19:10:39 437.200
NOAA 15 25 Sep 19:03:53 19:09:08 64° 258° (WSW) 19:14:27 137.62
BRITE-PL 25 Sep 19:05:26 19:10:31 33° 264° (W) 19:15:36 437.365/2234.400
Cosmos 2499 25 Sep 19:07:00 19:08:28 11° 62° (ENE) 19:09:56 435.465 / 435.565
GOMX 1 25 Sep 19:07:47 19:13:12 65° 259° (W) 19:18:27 467.674
Cubesat XI-IV 25 Sep 19:10:38 19:15:55 70° 258° (WSW) 19:21:14 437.490
CUTE-I 25 Sep 19:11:39 19:16:56 68° 258° (WSW) 19:22:13 437.470
GONETS M04 25 Sep 19:25:30 19:32:02 22° 66° (ENE) 19:38:29
NOAA 18 25 Sep 19:30:49 19:36:10 55° 259° (WSW) 19:41:32 137.9125
CINEMA 3 25 Sep 19:37:30 19:41:22 28° 71° (ENE) 19:45:07 145.822/145.860
DOVE 4 25 Sep 19:42:42 19:47:48 64° 259° (W) 19:52:39 437.250
DANDE 25 Sep 19:54:50 19:57:58 17° 79° (E) 20:01:38 436.750
STRAND 1 25 Sep 20:15:10 20:19:59 39° 98° (E) 20:24:46 437.568
RS-15 25 Sep 20:19:00 20:29:45 48° 109° (ESE) 20:41:02 29.354- 29.394
COMPASS 1 25 Sep 20:20:45 20:24:17 27° 70° (ENE) 20:27:50 437.405
CUSAT 1 25 Sep 20:27:27 20:33:14 80° 280° (W) 20:40:37 437.405
Oscar 11 25 Sep 20:30:17 20:31:27 11° 63° (ENE) 20:32:36 145.826/435.025
CUTE 1.7 + AOD 2 25 Sep 20:37:30 20:41:43 85° 258° (WSW) 20:45:59 437.475
CANX-2 25 Sep 20:38:15 20:42:27 71° 258° (WSW) 20:46:43 2200.000
ISS 25 Sep 20:39:41 20:41:27 14° 129° (SE) 20:43:13 145.825
SEEDS 25 Sep 20:43:43 20:47:53 77° 78° (ENE) 20:52:07 437.485
HO-68 25 Sep 20:44:44 20:51:54 74° 256° (WSW) 20:59:05 435.675
AO-85 25 Sep 20:52:00 20:53:50 12° 107° (ESE) 20:55:39 145.980
Cosmos 2499 25 Sep 20:55:21 21:02:52 69° 81° (E) 21:10:57 435.465 / 435.565
CUBEBUG 2 25 Sep 21:01:41 21:05:52 63° 75° (ENE) 21:10:00 437.445
PRISM 25 Sep 21:12:05 21:13:26 11° 91° (E) 21:14:48 437.425
AAUSAT CUBESAT 2 25 Sep 21:13:40 21:17:48 90° 217° (SW) 21:22:00 437.432
CINEMA 3 25 Sep 21:14:47 21:18:28 24° 264° (W) 21:22:03 145.822/145.860
FUNcube-1 25 Sep 21:19:55 21:23:43 36° 72° (ENE) 21:27:30 145.935
GONETS M04 25 Sep 21:20:55 21:29:44 75° 266° (W) 21:38:25
DELFI C3 25 Sep 21:22:00 21:24:21 15° 67° (ENE) 21:26:43 145.870
UWE-3 25 Sep 21:25:06 21:29:16 77° 76° (ENE) 21:33:26 435.000/436.395/437.385
DANDE 25 Sep 21:35:09 21:39:46 52° 285° (WNW) 21:45:57 436.750
STRAND 1 25 Sep 21:54:51 21:58:54 24° 294° (WNW) 22:02:57 437.568
COMPASS 1 25 Sep 21:56:33 21:59:48 22° 265° (W) 22:03:04 437.405
ZACube-1 25 Sep 22:00:10 22:04:17 66° 259° (W) 22:08:25 437.345
Oscar 11 25 Sep 22:02:44 22:07:00 65° 259° (W) 22:11:18 145.826/435.025
CUSAT 1 25 Sep 22:13:45 22:16:48 13° 303° (WNW) 22:20:06 437.405
ISS 25 Sep 22:14:25 22:17:36 53° 324° (NW) 22:20:49 145.825
AO-85 25 Sep 22:28:29 22:33:45 83° 301° (WNW) 22:38:43 145.980
UNISAT 6 25 Sep 22:28:58 22:30:25 11° 91° (E) 22:31:54 437.425
RS-15 25 Sep 22:30:50 22:42:06 52° 311° (NW) 22:54:00 29.354- 29.394
HO-68 25 Sep 22:39:46 22:40:40 10° 272° (W) 22:41:34 435.675
HUMSAT D 25 Sep 22:41:58 22:46:00 65° 76° (ENE) 22:50:04 437.325/437.525
PRISM 25 Sep 22:45:01 22:49:02 51° 286° (WNW) 22:53:00 437.425
ESTCUBE 1 25 Sep 22:45:45 22:47:28 12° 63° (ENE) 22:49:10 437.505/2401.250
Cosmos 2499 25 Sep 22:50:02 22:55:18 21° 277° (W) 23:00:48 435.465 / 435.565
DELFI C3 25 Sep 22:55:08 22:58:51 37° 262° (W) 23:02:36 145.870
FUNcube-1 25 Sep 22:57:32 23:00:04 16° 267° (W) 23:02:38 145.935
JUGNU 25 Sep 22:57:39 22:59:26 11° 176° (S) 23:01:14 437.505
ANTELSAT 25 Sep 23:02:26 23:06:14 28° 97° (E) 23:10:05 437.575/2403.000
CUBEBUG 1 25 Sep 23:05:55 23:07:39 12° 64° (ENE) 23:09:23 437.445
GONETS M04 25 Sep 23:21:50 23:24:53 12° 285° (WNW) 23:27:55
TIGRISAT 25 Sep 23:23:20 23:27:33 45° 99° (E) 23:31:50 435.000
50 SAT 25 Sep 23:34:21 23:36:22 14° 67° (ENE) 23:38:25 437.505
AISAT 25 Sep 23:45:32 23:49:17 27° 69° (ENE) 23:53:02 437.250
AUBIESAT-1 25 Sep 23:46:36 23:49:51 23° 66° (ENE) 23:52:56 437.475
ISS 25 Sep 23:53:11 23:54:42 12° 343° (NNW) 23:56:12 145.825
JAS-2 25 Sep 23:56:44 00:02:05 20° 88° (E) 00:07:16 435.910
SPROUT 25 Sep 23:56:45 23:59:36 18° 67° (ENE) 00:02:26 437.525
UNISAT 6 26 Sep 00:03:07 00:07:26 58° 285° (WNW) 00:11:51 437.425
UKube-1 26 Sep 00:05:42 00:08:54 21° 67° (ENE) 00:12:06 .
QB50P1 26 Sep 00:10:58 00:14:03 20° 94° (E) 00:17:07 145.935-145.965
DUCHIFAT 1 26 Sep 00:11:44 00:14:31 17° 94° (E) 00:17:18 145.980
AO-85 26 Sep 00:12:26 00:14:51 13° 318° (NW) 00:17:12 145.980
ESTCUBE 1 26 Sep 00:19:11 00:23:40 66° 258° (WSW) 00:28:12 437.505/2401.250
M-CUBED/EXP-1 PRIME 26 Sep 00:20:46 00:25:02 74° 72° (ENE) 00:28:59 437.505
POPSAT HIP 1 26 Sep 00:23:50 00:27:26 27° 96° (E) 00:31:00 437.405
VELOX 1 26 Sep 00:28:32 00:32:59 78° 75° (ENE) 00:37:27 145.980
DX 1 26 Sep 00:28:36 00:32:48 48° 73° (ENE) 00:37:01 434.975-435.025
CUBEBUG 1 26 Sep 00:39:00 00:43:23 62° 259° (W) 00:47:46 437.445
ANTELSAT 26 Sep 00:39:16 00:42:49 24° 291° (WNW) 00:46:25 437.575/2403.000
NANOSAT C BR1 26 Sep 00:41:31 00:45:31 41° 99° (E) 00:49:29 145.865
JUGNU 26 Sep 00:46:01 00:47:31 11° 186° (S) 00:49:02 437.505
RS-15 26 Sep 00:49:59 00:58:32 21° 342° (NNW) 01:07:18 29.354- 29.394
TIGRISAT 26 Sep 01:01:15 01:03:53 16° 294° (WNW) 01:06:32 435.000
QB50P2 26 Sep 01:02:31 01:06:45 87° 101° (E) 01:10:59 145.880/145.840
POLYITAN 1 26 Sep 01:04:46 01:08:59 87° 103° (ESE) 01:13:13 437.675
50 SAT 26 Sep 01:06:19 01:09:35 32° 262° (W) 01:12:53 437.505
Cosmos 2491 26 Sep 01:09:23 01:13:38 14° 61° (ENE) 01:17:52 435.465 / 435.565
AUBIESAT-1 26 Sep 01:20:38 01:24:10 26° 257° (WSW) 01:27:32 437.475
SO-50 26 Sep 01:21:14 01:25:46 62° 57° (ENE) 01:30:10 436.795
AISAT 26 Sep 01:21:58 01:25:40 25° 264° (W) 01:29:22 437.250
TISAT 1 26 Sep 01:24:27 01:28:10 32° 71° (ENE) 01:31:55 437.305
BEESAT 2 26 Sep 01:29:07 01:30:30 12° 108° (ESE) 01:31:53 435.950
SPROUT 26 Sep 01:31:16 01:35:13 37° 262° (W) 01:39:13 437.525
SRMSAT 26 Sep 01:37:39 01:39:41 12° 177° (S) 01:41:44 437.500
JAS-2 26 Sep 01:39:53 01:47:48 80° 286° (WNW) 01:55:21 435.910
Oscar 19 26 Sep 01:40:44 01:43:30 14° 91° (E) 01:46:15 437.125/150
UKube-1 26 Sep 01:40:49 01:44:42 32° 262° (W) 01:48:37 .
QB50P1 26 Sep 01:46:08 01:49:51 31° 289° (WNW) 01:53:33 145.935-145.965
DUCHIFAT 1 26 Sep 01:46:29 01:50:18 35° 288° (WNW) 01:54:05 145.980
BUGSAT 1 26 Sep 01:58:06 02:02:04 64° 286° (WNW) 02:06:03 437.445
POPSAT HIP 1 26 Sep 01:59:46 02:03:04 23° 291° (WNW) 02:06:22 437.405
DX 1 26 Sep 02:06:58 02:09:14 14° 268° (W) 02:11:29 434.975-435.025
YUBILEINY 26 Sep 02:10:58 02:14:36 13° 76° (ENE) 02:18:13 435.215
ITUPSAT 1 26 Sep 02:12:43 02:16:23 23° 67° (ENE) 02:20:04 437.325
BEESAT 3 26 Sep 02:13:01 02:16:54 86° 120° (ESE) 02:20:51 437.485
NANOSAT C BR1 26 Sep 02:18:24 02:20:53 15° 294° (WNW) 02:23:20 145.865
Gurwin Techsat 1B 26 Sep 02:19:55 02:23:17 17° 92° (E) 02:26:40 435.225
SWISSCUBE 26 Sep 02:26:20 02:30:37 35° 70° (ENE) 02:34:56 437.505
BEESAT 26 Sep 02:39:22 02:43:49 42° 71° (ENE) 02:48:19 436.000
TISAT 1 26 Sep 03:00:53 03:03:52 19° 266° (W) 03:06:51 437.305
SO-50 26 Sep 03:03:45 03:05:38 12° 253° (WSW) 03:07:31 436.795
BEESAT 2 26 Sep 03:03:58 03:07:49 52° 304° (WNW) 03:11:43 435.950
ISS 26 Sep 03:07:46 03:10:01 17° 23° (NNE) 03:12:18 145.825
